Location: Austin
(30.3000°N, 97.7500°W)
Time: 01:13:38
(UTC-06:00)

Meteor 1-11 - Pass Details

Date: 04 November 2025
Orbit: 831 x 893 km, 81.2° (Epoch: 15 November)

Event Time Altitude Azimuth Distance (km) Brightness Sun altitude
Rises 18:12:39 0° 359° (N) 3,478 7.3 -7.4°
Reaches altitude 10° 18:15:12 10° 4° (N) 2,528 6.5 -8.0°
Maximum altitude 18:20:46 50° 80° (E) 1,083 4.4 -9.1°
Drops below altitude 10° 18:26:13 10° 155° (SSE) 2,473 6.5 -10.3°
Sets 18:28:40 0° 160° (SSE) 3,397 7.3 -10.8°
